Tracking 29528 objects as of 15-Sep-2024
HD Live streaming from Space Station
objects crossing your sky now

STARLINK-1274

Track STARLINK-1274 now!
10-day predictions
STARLINK-1274 is classified as:


NORAD ID: 45387
Int'l Code: 2020-019AD
Perigee: 553.5 km
Apogee: 555.2 km
Inclination: 53.1 °
Period: 95.6 minutes
Semi major axis: 6925 km
RCS: Unknown
Launch date: March 18, 2020
Source: United States (US)
Launch site: AIR FORCE EASTERN TEST RANGE (AFETR)
Your satellite tracking list
Your tracking list is empty




NASA's NSSDC Master Catalog

Two Line Element Set (TLE):
1 45387U 20019AD  24258.83759469  .00006614  00000-0  46250-3 0  9998
2 45387  53.0534  54.5971 0001260  84.2645 275.8487 15.06397510248460
Source of the keplerian elements: AFSPC